Voltar ao catálogo

IRIDE-MS2-HEO-3

AtivoCiênciaSSO
NORAD 64568·PAYLOAD·🇮🇹 Italy

Lançado Jun 23, 2025 de Vandenberg Space Force Base

Loading…

Próximas Passagens (próximas 24 horas)

TLE

AtualizadoSource: Space-Track

Época: Sep 14, 2026, 22:52 UTC

1 64568U 25135AS  26257.95321663  .00001311  00000-0  13504-3 0  9994
2 64568  97.7806  10.9082 0001498  78.7609 281.3778 14.91936965 67267

Acompanhe IRIDE-MS2-HEO-3 em tempo real com AllMySat

Download on the App Store